FW6272 Weather Reports


Display with metric or nautical units.
time (UTC)temp
F
wind
direction
speed
MPH
gust
MPH
rain 1hr
in
rain 24hr
in
rain mn
in
humidity
%
barometer
mb
20260508012703 54 151 0.0 0.0 0.00 0.30 0.25 83 1009.5
20260508011204 54 151 0.0 0.0 0.00 0.30 0.25 81 1009.2
20260508010704 54 176 0.0 0.0 0.00 0.30 0.25 79 1009.5
20260508010203 54 175 0.0 0.0 0.00 0.30 0.25 77 1009.4
20260508005703 55 168 0.0 0.0 0.00 0.30 0.25 76 1009.5
20260508005203 55 172 0.0 2.0 0.00 0.30 0.25 75 1009.5
20260508004703 55 161 0.0 2.0 0.00 0.30 0.25 73 1009.1
20260508004204 55 174 0.0 5.0 0.00 0.30 0.25 72 1009.1
20260508003703 55 168 0.0 2.0 0.00 0.30 0.25 71 1009.1
20260508003203 56 155 0.0 0.0 0.00 0.30 0.25 66 1009.1
20260508002703 56 170 1.0 2.0 0.00 0.30 0.25 65 1008.8
20260508002203 56 138 1.0 2.0 0.00 0.30 0.25 64 1008.8
20260508001203 57 113 0.0 0.0 0.00 0.30 0.25 62 1008.5
20260508000703 57 113 0.0 0.0 0.00 0.30 0.25 59 1008.2
20260508000204 57 113 0.0 0.0 0.00 0.30 0.25 59 1008.5
20260507235703 57 113 0.0 0.0 0.00 0.30 0.25 60 1008.5
20260507235204 57 113 0.0 0.0 0.00 0.30 0.25 57 1008.5
20260507234703 58 113 0.0 0.0 0.00 0.30 0.25 57 1008.5
20260507234204 58 113 0.0 0.0 0.00 0.30 0.25 59 1008.5
20260507233703 58 113 0.0 0.0 0.00 0.30 0.25 58 1008.4
20260507233203 59 113 0.0 0.0 0.00 0.30 0.25 57 1008.3
20260507232703 60 113 0.0 0.0 0.00 0.30 0.25 60 1008.4
20260507232204 60 113 0.0 0.0 0.00 0.30 0.25 60 1008.1
20260507231703 61 113 0.0 0.0 0.00 0.30 0.25 53 1008.1
20260507231203 62 113 0.0 0.0 0.00 0.30 0.25 52 1008.1
20260507230703 63 113 0.0 0.0 0.00 0.30 0.25 52 1008.1
20260507230203 63 100 0.0 0.0 0.00 0.30 0.25 47 1007.9
20260507225703 63 105 0.0 2.0 0.00 0.30 0.25 45 1008.1
20260507225203 64 100 0.0 0.0 0.00 0.30 0.25 47 1007.8
20260507224703 64 105 0.0 2.0 0.00 0.30 0.25 42 1008.0
20260507224204 64 190 0.0 5.0 0.00 0.30 0.25 40 1008.0
20260507223703 64 64 1.0 5.0 0.00 0.30 0.25 42 1008.1
20260507223203 65 86 0.0 5.0 0.00 0.30 0.25 45 1008.4
20260507222703 65 112 1.0 2.0 0.00 0.30 0.25 39 1008.1
20260507222203 66 144 1.0 5.0 0.00 0.30 0.25 40 1008.1
20260507220704 67 183 0.0 5.0 0.00 0.30 0.25 36 1007.8
20260507220204 68 215 2.0 5.0 0.00 0.30 0.25 36 1007.8
20260507215704 68 38 1.0 5.0 0.00 0.30 0.25 37 1008.1
20260507215203 67 96 0.0 2.0 0.00 0.30 0.25 38 1008.1
20260507214203 68 171 2.0 7.0 0.00 0.30 0.25 36 1008.1
20260507213203 68 179 0.0 5.0 0.00 0.30 0.25 37 1008.1
20260507212704 68 129 0.0 2.0 0.00 0.30 0.25 39 1008.1
20260507212203 68 103 1.0 10.0 0.00 0.30 0.25 39 1007.8
20260507211204 68 65 1.0 5.0 0.00 0.30 0.25 40 1007.9
20260507210203 67 86 2.0 5.0 0.00 0.30 0.25 35 1007.8
20260507205703 67 216 1.0 7.0 0.00 0.30 0.25 37 1007.8
20260507204703 67 213 1.0 5.0 0.00 0.30 0.25 36 1007.8
20260507204204 67 178 1.0 10.0 0.00 0.30 0.25 39 1007.8
20260507203704 68 147 0.0 0.0 0.00 0.30 0.25 38 1007.8
20260507202203 68 179 2.0 7.0 0.00 0.30 0.25 35 1008.0
20260507201704 68 337 2.0 13.0 0.00 0.30 0.25 38 1007.8
20260507201203 68 192 3.0 5.0 0.00 0.30 0.25 36 1007.8
20260507200703 67 200 2.0 7.0 0.00 0.30 0.25 37 1007.8
20260507195703 67 162 1.0 7.0 0.00 0.30 0.25 38 1008.1
20260507195204 67 45 1.0 10.0 0.00 0.30 0.25 39 1008.1
20260507194704 67 123 1.0 5.0 0.00 0.30 0.25 42 1007.9
20260507194203 67 34 2.0 10.0 0.00 0.30 0.25 38 1008.5
20260507193203 67 187 1.0 7.0 0.00 0.30 0.25 39 1008.5
20260507192203 66 210 3.0 13.0 0.00 0.30 0.25 39 1008.5
20260507191703 66 212 1.0 7.0 0.00 0.30 0.25 41 1008.8
20260507191204 66 36 1.0 7.0 0.00 0.30 0.25 41 1008.8
20260507190704 65 90 1.0 7.0 0.00 0.30 0.25 43 1009.1
20260507190203 65 242 1.0 7.0 0.00 0.30 0.25 39 1008.8
20260507185704 65 202 1.0 5.0 0.00 0.30 0.25 40 1008.7
20260507185203 65 314 2.0 7.0 0.00 0.30 0.25 40 1008.8
20260507184704 65 209 2.0 10.0 0.00 0.30 0.25 40 1008.8
20260507184204 65 44 3.0 10.0 0.00 0.30 0.25 41 1009.1
20260507183704 65 188 3.0 7.0 0.00 0.30 0.25 42 1009.1
20260507183204 65 47 5.0 10.0 0.00 0.30 0.25 43 1009.1
20260507182703 65 355 2.0 7.0 0.00 0.30 0.25 41 1009.1
20260507182203 65 108 1.0 5.0 0.00 0.30 0.25 42 1009.2
20260507181703 65 63 3.0 7.0 0.00 0.30 0.25 39 1009.4
20260507181204 64 219 1.0 7.0 0.00 0.30 0.25 41 1009.5
20260507180703 64 188 4.0 10.0 0.00 0.30 0.25 41 1009.4
20260507180203 64 277 2.0 13.0 0.00 0.30 0.25 44 1009.5
20260507175703 64 70 2.0 13.0 0.00 0.30 0.25 44 1009.5
20260507174704 63 31 4.0 13.0 0.00 0.30 0.25 42 1009.5
20260507174203 63 69 2.0 10.0 0.00 0.30 0.25 42 1009.8
20260507173704 63 327 2.0 5.0 0.00 0.30 0.25 46 1009.9
20260507173204 63 3 3.0 13.0 0.00 0.30 0.25 45 1009.8
20260507172703 64 152 2.0 15.0 0.00 0.30 0.25 47 1009.9
20260507172203 64 54 5.0 13.0 0.00 0.30 0.25 44 1010.2
20260507171703 63 293 1.0 5.0 0.00 0.30 0.25 47 1010.2
20260507171203 63 84 3.0 10.0 0.00 0.30 0.25 46 1010.2
20260507170704 63 201 3.0 13.0 0.00 0.30 0.25 46 1010.2
20260507170204 62 169 0.0 5.0 0.00 0.30 0.25 45 1010.2
20260507165703 62 166 0.0 10.0 0.00 0.30 0.25 45 1010.2
20260507165203 62 39 8.0 10.0 0.00 0.30 0.25 49 1010.2
20260507164704 62 39 8.0 10.0 0.00 0.30 0.25 49 1010.2
20260507164203 62 73 1.0 5.0 0.00 0.30 0.25 48 1010.2
20260507163703 62 70 1.0 2.0 0.00 0.30 0.25 49 1010.8
20260507163204 61 91 2.0 7.0 0.00 0.30 0.25 52 1010.5
20260507162704 61 19 5.0 7.0 0.00 0.31 0.25 50 1010.8
20260507162203 61 93 1.0 7.0 0.00 0.31 0.25 52 1010.5
20260507161703 61 196 3.0 10.0 0.00 0.31 0.25 51 1010.5
20260507161204 60 10 2.0 5.0 0.00 0.31 0.25 55 1010.8
20260507160204 60 341 2.0 7.0 0.00 0.31 0.25 51 1011.2
20260507155703 60 188 0.0 2.0 0.00 0.31 0.25 53 1011.1
20260507155203 60 44 0.0 2.0 0.00 0.31 0.25 54 1011.2
20260507154204 60 338 5.0 10.0 0.00 0.31 0.25 54 1011.2
20260507153703 60 130 1.0 5.0 0.00 0.31 0.25 61 1011.2
20260507153203 59 77 0.0 2.0 0.00 0.31 0.25 60 1011.5
20260507152203 59 347 3.0 10.0 0.00 0.31 0.25 58 1011.9
20260507151203 58 155 1.0 5.0 0.00 0.31 0.25 62 1011.9
20260507150703 58 35 5.0 13.0 0.00 0.31 0.25 61 1011.5
20260507150204 58 69 3.0 13.0 0.00 0.31 0.25 62 1011.8
20260507145704 57 112 0.0 5.0 0.00 0.31 0.25 64 1011.5
20260507144704 57 66 1.0 5.0 0.00 0.31 0.25 65 1011.9
20260507144203 57 42 5.0 5.0 0.00 0.31 0.25 70 1011.9
20260507143704 57 42 5.0 5.0 0.00 0.31 0.25 70 1011.9
20260507143204 57 41 5.0 7.0 0.00 0.31 0.25 70 1011.9
20260507142203 56 201 1.0 5.0 0.00 0.31 0.25 70 1011.9
20260507141703 56 47 2.0 7.0 0.00 0.31 0.25 75 1011.9
20260507141203 55 229 3.0 5.0 0.00 0.31 0.25 74 1012.2
20260507140703 55 223 2.0 7.0 0.00 0.31 0.25 75 1012.2
20260507140203 55 130 0.0 5.0 0.00 0.31 0.25 78 1011.9
20260507135704 55 127 0.0 0.0 0.00 0.31 0.25 80 1011.9
20260507135204 55 135 1.0 5.0 0.00 0.31 0.25 80 1011.9
20260507134704 55 182 1.0 5.0 0.00 0.31 0.25 81 1011.9
20260507134203 54 359 2.0 7.0 0.00 0.31 0.25 79 1012.2
20260507133703 54 182 0.0 5.0 0.00 0.31 0.25 82 1011.9
20260507133204 53 177 0.0 0.0 0.00 0.31 0.25 83 1011.9
20260507132704 53 170 0.0 0.0 0.00 0.31 0.25 82 1011.9
20260507132203 53 133 0.0 2.0 0.00 0.31 0.25 83 1011.9
20260507131704 52 165 0.0 5.0 0.00 0.31 0.25 88 1011.9
20260507131203 52 221 0.0 5.0 0.00 0.31 0.25 89 1011.9
20260507130703 51 28 0.0 0.0 0.00 0.31 0.25 89 1011.9
20260507130204 51 102 0.0 0.0 0.00 0.31 0.25 92 1012.2
20260507125703 51 102 0.0 0.0 0.00 0.31 0.25 92 1012.2
20260507124704 51 99 0.0 2.0 0.00 0.31 0.25 93 1011.9
20260507124204 51 97 0.0 0.0 0.00 0.31 0.25 92 1012.2
20260507123703 50 120 0.0 0.0 0.00 0.31 0.25 92 1011.9
20260507123203 50 111 0.0 2.0 0.00 0.31 0.25 93 1011.9
20260507122204 50 322 1.0 2.0 0.00 0.31 0.25 94 1011.9
20260507121703 50 322 1.0 5.0 0.00 0.31 0.25 94 1011.9
20260507121204 50 127 0.0 0.0 0.00 0.31 0.25 95 1011.9
20260507120704 50 179 0.0 2.0 0.00 0.31 0.25 95 1011.9
20260507120204 50 148 0.0 0.0 0.00 0.31 0.25 96 1011.9
20260507115703 50 125 0.0 5.0 0.00 0.31 0.25 96 1011.9
20260507115204 50 186 0.0 0.0 0.00 0.31 0.25 97 1011.9
20260507114703 50 186 0.0 0.0 0.00 0.31 0.25 97 1011.9
20260507114203 50 111 0.0 0.0 0.00 0.31 0.25 98 1011.9
20260507113204 50 141 0.0 0.0 0.00 0.31 0.25 98 1011.5
20260507112704 50 152 0.0 0.0 0.00 0.31 0.25 98 1011.5
20260507112204 49 157 0.0 0.0 0.00 0.31 0.25 98 1011.9
20260507111704 49 154 0.0 0.0 0.00 0.31 0.25 98 1011.5
20260507111204 49 137 0.0 0.0 0.00 0.31 0.25 98 1011.2
20260507110203 49 89 0.0 0.0 0.00 0.31 0.25 98 1011.0
20260507105204 49 142 0.0 0.0 0.00 0.31 0.25 98 1011.2
20260507104703 49 172 0.0 0.0 0.00 0.31 0.25 98 1011.2
20260507104204 49 162 0.0 0.0 0.00 0.31 0.25 98 1011.2
20260507102704 49 142 0.0 0.0 0.00 0.31 0.25 98 1010.5
20260507101703 49 143 0.0 0.0 0.00 0.31 0.25 98 1010.8
20260507101203 49 143 0.0 0.0 0.00 0.31 0.25 98 1010.8
20260507100703 49 143 0.0 0.0 0.00 0.31 0.25 98 1010.8
20260507100204 49 143 0.0 0.0 0.00 0.31 0.25 98 1010.5
20260507095204 49 139 0.0 0.0 0.00 0.31 0.25 98 1010.8
20260507094703 49 160 0.0 0.0 0.00 0.31 0.25 98 1010.5
20260507094203 49 169 0.0 0.0 0.00 0.31 0.25 98 1010.5
20260507093704 49 153 0.0 0.0 0.00 0.31 0.25 98 1010.5
20260507093203 49 142 0.0 0.0 0.00 0.31 0.25 98 1010.8
20260507092704 49 122 0.0 0.0 0.00 0.31 0.25 98 1010.5
20260507091203 49 149 0.0 0.0 0.00 0.31 0.25 98 1010.2
20260507090704 49 149 0.0 0.0 0.00 0.31 0.25 98 1010.2
20260507085204 49 49 1.0 5.0 0.00 0.31 0.25 98 1010.2
20260507084703 49 116 0.0 7.0 0.00 0.31 0.25 98 1010.2
20260507083703 49 75 0.0 0.0 0.00 0.31 0.25 98 1010.2
20260507083203 49 95 0.0 0.0 0.00 0.31 0.25 98 1010.2
20260507082704 49 82 0.0 0.0 0.00 0.31 0.25 98 1010.2
20260507082205 49 114 0.0 5.0 0.00 0.31 0.25 98 1010.2
20260507081704 50 103 0.0 0.0 0.00 0.31 0.25 98 1010.8
20260507081204 50 117 0.0 2.0 0.00 0.31 0.25 98 1010.8
20260507075703 50 95 1.0 5.0 0.00 0.31 0.25 97 1010.8
20260507075203 50 171 0.0 5.0 0.00 0.31 0.25 97 1011.2
20260507074703 50 169 0.0 7.0 0.00 0.31 0.25 97 1010.8
20260507074204 50 115 1.0 5.0 0.00 0.31 0.25 97 1010.5
20260507073703 50 194 0.0 2.0 0.01 0.31 0.25 97 1010.5
20260507072703 50 53 0.0 5.0 0.03 0.31 0.25 97 1010.5
20260507072202 50 151 1.0 5.0 0.04 0.31 0.25 97 1010.5
20260507071202 51 54 1.0 5.0 0.07 0.31 0.25 97 1010.5
20260507070702 51 131 0.0 7.0 0.08 0.31 0.25 97 1010.5
20260507070203 51 20 1.0 7.0 0.10 0.31 0.25 97 1010.2
20260507065703 51 50 0.0 7.0 0.10 0.31 0.25 97 1010.5
20260507064702 51 152 0.0 0.0 0.16 0.31 0.25 97 1010.5
20260507064202 51 168 0.0 2.0 0.21 0.31 0.25 97 1010.5
20260507062703 52 178 0.0 7.0 0.22 0.28 0.22 96 1010.8
20260507061702 52 126 0.0 2.0 0.20 0.26 0.20 96 1010.2
20260507061202 53 142 0.0 0.0 0.18 0.24 0.18 95 1010.5
20260507060702 53 82 0.0 7.0 0.17 0.23 0.17 95 1010.6
20260507060202 54 133 0.0 7.0 0.15 0.21 0.15 95 1010.2
20260507055202 54 118 0.0 2.0 0.14 0.20 0.14 93 1010.2
20260507054702 55 104 1.0 5.0 0.09 0.15 0.09 91 1010.5
20260507054202 55 187 1.0 5.0 0.04 0.10 0.04 91 1010.9
20260507053702 55 139 0.0 0.0 0.00 0.06 0.00 92 1009.1
20260507053203 55 139 0.0 2.0 0.00 0.06 0.00 92 1009.1
20260507052702 55 138 0.0 0.0 0.00 0.06 0.00 90 1009.1
20260507052202 55 150 1.0 5.0 0.00 0.06 0.00 91 1009.8
20260507051702 55 122 0.0 5.0 0.00 0.06 0.00 92 1009.8
20260507051203 55 125 0.0 2.0 0.00 0.06 0.00 92 1009.8
20260507050703 55 134 0.0 2.0 0.00 0.06 0.00 92 1009.7
20260507050203 56 131 0.0 0.0 0.00 0.06 0.00 91 1009.1
20260507045703 56 131 0.0 2.0 0.00 0.06 0.00 91 1009.1
20260507045202 56 126 0.0 5.0 0.00 0.06 0.00 91 1009.3
20260507044702 56 64 0.0 0.0 0.00 0.06 0.00 91 1009.5
20260507044202 56 68 1.0 5.0 0.00 0.06 0.00 91 1009.5
20260507043702 56 118 0.0 7.0 0.00 0.06 0.00 91 1009.8
20260507043202 56 297 3.0 7.0 0.00 0.06 0.00 92 1009.8
20260507042202 56 104 0.0 2.0 0.00 0.06 0.00 93 1009.8
20260507041702 56 114 1.0 7.0 0.00 0.06 0.00 93 1009.6
20260507041202 56 72 1.0 5.0 0.00 0.06 0.00 94 1009.8
20260507040702 56 127 0.0 2.0 0.00 0.06 0.00 94 1009.5
20260507040203 57 53 1.0 5.0 0.00 0.06 0.00 94 1009.3
20260507035203 57 88 1.0 7.0 0.00 0.06 0.06 94 1009.5
20260507034702 58 68 1.0 5.0 0.01 0.06 0.06 94 1009.7
20260507034203 59 311 1.0 7.0 0.01 0.06 0.06 94 1009.8
20260507033702 61 50 2.0 7.0 0.02 0.06 0.06 94 1009.8
20260507033203 62 94 0.0 7.0 0.02 0.06 0.06 94 1009.5
20260507032202 64 353 3.0 7.0 0.04 0.06 0.06 96 1009.2
20260507031702 64 183 0.0 0.0 0.04 0.06 0.06 96 1008.8
20260507031202 64 178 0.0 0.0 0.04 0.06 0.06 96 1008.8
20260507030702 64 173 0.0 2.0 0.05 0.06 0.06 96 1008.8
20260507030202 64 172 0.0 2.0 0.05 0.06 0.06 95 1008.7
20260507025702 64 189 0.0 5.0 0.05 0.06 0.06 95 1008.9
20260507025203 65 195 0.0 5.0 0.05 0.06 0.06 94 1009.1
20260507024702 65 180 0.0 2.0 0.04 0.05 0.05 94 1009.1
20260507023703 66 176 0.0 2.0 0.03 0.04 0.04 93 1008.8
20260507023202 66 188 0.0 5.0 0.03 0.04 0.04 92 1009.1
20260507022702 66 186 0.0 0.0 0.03 0.04 0.04 92 1009.1
20260507021702 67 213 0.0 5.0 0.01 0.02 0.02 89 1009.1
20260507021202 67 195 1.0 5.0 0.01 0.02 0.02 88 1009.0
20260507020702 67 199 3.0 7.0 0.00 0.01 0.01 85 1009.1
20260507020203 67 164 0.0 0.0 0.00 0.01 0.01 85 1009.1
20260507015702 67 174 3.0 10.0 0.00 0.01 0.01 85 1009.1
20260507014702 67 178 3.0 10.0 0.00 0.01 0.01 85 1009.1
20260507013702 67 190 4.0 10.0 0.00 0.01 0.01 85 1009.0